Weather History for Akrotiri, Cyprus

Change the Weather History Date:

Sunday, December 30, 2012

  Actual Average Record
Temperature  
Mean Temperature 56 °F -  
Max Temperature 64 °F 59 °F 69 °F (2010)
Min Temperature 47 °F 46 °F 44 °F (2005)
Degree Days  
Heating Degree Days 10    
Growing Degree Days 6 (Base 50)    
Moisture  
Dew Point 47 °F    
Average Humidity 69    
Maximum Humidity 87    
Minimum Humidity 45    
Precipitation  
Precipitation 0.00 in - - ()
Sea Level Pressure  
Sea Level Pressure 30.10 in    
Wind  
Wind Speed 7 mph ()    
Max Wind Speed 16 mph    
Max Gust Speed -    
Visibility 9.7 miles    
Events      
Averages and records for this station are not official NWS values.
T = Trace of Precipitation, MM = Missing Value Source: Averaged Metar Reports

Daily Weather History Graph

Daily Weather History Graph

Search for Another Location

Airport:

Trip Planner

Search our weather history database for the weather conditions in past years. The results will help you decide how hot, cold, wet, or windy it might be!

Date:

Astronomy

Dec. 30, 2012 Rise Set
Actual Time 6:54 AM EET 4:46 PM EET
Civil Twilight 6:26 AM EET 5:14 PM EET
Nautical Twilight 5:55 AM EET 5:46 PM EET
Astronomical Twilight 5:24 AM EET 6:17 PM EET
Moon 6:52 PM EET (12/30) 7:56 AM EET (12/30)
Length of Visible Light 10h 48m
Length of Day
9h 52m
Waning Gibbous, 96% of the Moon is Illuminated
Dec 30
Waning Gibbous
Jan 5
Last Quarter
Jan 11
New
Jan 19
First Quarter
Jan 27
Full

Hourly Weather History & Observations

Time (EET) Temp. Dew Point Humidity Pressure Visibility Wind Dir Wind Speed Gust Speed Precip Events Conditions
12:50 AM 51.8 °F 46.4 °F 82% 30.06 in 6.2 mi North 4.6 mph - N/A   Partly Cloudy
1:50 AM 51 °F 46 °F 77% 30.09 in 19 mi NNE 4.6 mph - -  
1:50 AM 51.8 °F 46.4 °F 82% 30.06 in - NNE 4.6 mph - N/A   Clear
2:50 AM 50.0 °F 46.4 °F 87% 30.06 in - NNE 3.5 mph - N/A   Clear
3:50 AM 50.0 °F 44.6 °F 82% 30.06 in - North 3.5 mph - N/A   Clear
4:50 AM 48.2 °F 44.6 °F 87% 30.06 in - North 3.5 mph - N/A   Clear
5:50 AM 50.0 °F 42.8 °F 76% 30.09 in - NE 6.9 mph - N/A   Clear
6:50 AM 53.6 °F 44.6 °F 72% 30.09 in 6.2 mi NE 8.1 mph - N/A   Partly Cloudy
7:50 AM 57 °F 46 °F 58% 30.12 in 22 mi NE 10.4 mph - -   Scattered Clouds
7:50 AM 57.2 °F 46.4 °F 67% 30.09 in - NE 10.4 mph - N/A   Clear
8:50 AM 60.8 °F 48.2 °F 63% 30.12 in - NE 11.5 mph - N/A   Clear
9:50 AM 62.6 °F 46.4 °F 55% 30.12 in - ENE 15.0 mph - N/A   Clear
10:50 AM 64.4 °F 46.4 °F 52% 30.12 in 6.2 mi East 16.1 mph - N/A   Partly Cloudy
11:50 AM 64.4 °F 48.2 °F 56% 30.12 in 6.2 mi East 15.0 mph - N/A   Partly Cloudy
12:50 PM 64.4 °F 48.2 °F 56% 30.09 in 6.2 mi East 13.8 mph - N/A   Partly Cloudy
1:50 PM 64 °F 48 °F 45% 30.11 in 19 mi East 13.8 mph - -   Scattered Clouds
1:50 PM 64.4 °F 48.2 °F 56% 30.09 in 6.2 mi East 13.8 mph - N/A   Partly Cloudy
2:50 PM 64.4 °F 48.2 °F 56% 30.09 in 6.2 mi East 12.7 mph - N/A   Partly Cloudy
3:50 PM 62.6 °F 46.4 °F 55% 30.09 in 6.2 mi East 10.4 mph - N/A   Partly Cloudy
4:50 PM 59.0 °F 48.2 °F 67% 30.09 in - ESE 6.9 mph - N/A   Clear
5:50 PM 59.0 °F 46.4 °F 63% 30.09 in - ESE 5.8 mph - N/A   Clear
6:50 PM 57.2 °F 48.2 °F 72% 30.12 in - East 8.1 mph - N/A   Clear
7:50 PM 55 °F 48 °F 71% 30.15 in 19 mi NNE 5.8 mph - -  
7:50 PM 55.4 °F 48.2 °F 77% 30.12 in - NNE 5.8 mph - N/A   Clear
8:50 PM 53.6 °F 48.2 °F 82% 30.12 in - NNE 4.6 mph - N/A   Clear
9:50 PM 53.6 °F 46.4 °F 77% 30.12 in - NNE 5.8 mph - N/A   Clear
10:50 PM 53.6 °F 46.4 °F 77% 30.12 in - NNE 5.8 mph - N/A   Clear
11:50 PM 53.6 °F 46.4 °F 77% 30.12 in - NNE 8.1 mph - N/A   Clear